Flag for U.S.A. Weather past 2 weeks in Daytona Beach, Florida, U.S.A.

Now
74 °F

Passing clouds.


Feels Like: 76 °F
Forecast: 73 / 83 °F
Wind: 5 mph from East

Location: Daytona Beach Regional Airport

Current Time: May 29, 2015 at 7:30:21 AM

Latest Report: May 29, 2015 at 6:53 AM


Visibility: 10 mi

Pressure: 30.09 "Hg

Humidity: 69%

Dew point: 63 °F

Location of Daytona BeachLocation

Historic Weather in Daytona Beach — Graph

°F

Daytona Beach temperature yesterday

Maximum temperature yesterday: 84 °F (at 12:53 PM)
Minimum temperature yesterday: 73 °F (at 5:53 AM)
Average temperature yesterday: 78 °F

Past Weeks' High & Low Weather Summary

 TemperatureHumidityPressure
High92 °F (May 21, 2:53 PM)97% (May 14, 6:53 AM)30.27 "Hg (May 14, 6:53 AM)
Low68 °F (May 16, 5:53 AM)41% (May 21, 2:53 PM)29.90 "Hg (May 21, 5:53 PM)
Average78 °F73%30.15 "Hg
* Reported May 14 5:53 AM — May 29 5:53 AM, Daytona Beach, Weather by CustomWeather, © 2015

Note: Actual official high and low records may vary slightly from our data, if they occured in-between our weather recording intervals... More about our weather records

Advertising

Daytona Beach weather history for previous 24 hours

 ConditionsComfort  
Time TempWeatherWind HumidityBarometerVisibility
5:53 AM
Fri, May 29
72 °FPassing clouds.3 mph68%30.08 "Hg10 mi
4:53 AM73 °FPassing clouds.5 mph66%30.08 "Hg10 mi
3:53 AM74 °FPassing clouds.6 mph67%30.08 "Hg10 mi
2:53 AM74 °FPassing clouds.5 mph69%30.10 "Hg10 mi
1:53 AM75 °FLight rain. Overcast.7 mph71%30.12 "Hg9 mi
12:53 AM75 °FPartly cloudy.7 mph66%30.14 "Hg10 mi
11:53 PM
Thu, May 28
73 °FPassing clouds.7 mph69%30.15 "Hg10 mi
10:53 PM73 °FPassing clouds.8 mph69%30.15 "Hg10 mi
9:53 PM75 °FPassing clouds.6 mph64%30.14 "Hg10 mi
8:53 PM75 °FPassing clouds.3 mph62%30.13 "Hg10 mi
7:53 PM77 °FPassing clouds.7 mph60%30.13 "Hg10 mi
6:53 PM79 °FScattered clouds.7 mph58%30.12 "Hg10 mi
5:53 PM80 °FPassing clouds.12 mph58%30.11 "Hg10 mi
4:53 PM81 °FPassing clouds.13 mph58%30.12 "Hg10 mi
3:53 PM81 °FScattered clouds.13 mph58%30.13 "Hg10 mi
2:53 PM79 °FLight rain. Broken clouds.12 mph67%30.15 "Hg10 mi
1:53 PM79 °FBroken clouds.8 mph67%30.16 "Hg10 mi
12:53 PM84 °FScattered clouds.12 mph55%30.18 "Hg10 mi
11:53 AM83 °FPassing clouds.8 mph51%30.18 "Hg10 mi
10:53 AM82 °FPassing clouds.10 mph55%30.18 "Hg10 mi
9:53 AM80 °FPassing clouds.13 mph54%30.17 "Hg10 mi
8:53 AM79 °FScattered clouds.13 mph58%30.17 "Hg10 mi
7:53 AM77 °FScattered clouds.8 mph60%30.15 "Hg10 mi
Weather by CustomWeather, © 2015

See weather overviewHow to use our weather pages